Miscellaneous Local Product
Issued by NWS North Platte, NE

Home | Current Version | Previous Version | Graphics & Text | Print | Product List | Glossary On
Versions: 1 2 3 4 5 6 7 8 9 10 11 12 13 14 15 16 17 18 19 20 21 22 23 24 25 26 27 28 29 30 31 32 33 34 35 36 37 38 39 40 41 42 43 44 45 46 47 48 49 50
000
AXUS43 KLBF 261410
MISLBF


WESTERN AND NORTH CENTRAL NEBRASKA HOURLY WEATHER ROUNDUP
NATIONAL WEATHER SERVICE NORTH PLATTE NE
800 AM CST FRI DEC 26 2014

***STATIONS NOT REPORTING VARIABLES SUCH AS SKY/WEATHER OR
PRESSURE ARE PROVIDED BY THE NEBRASKA DEPARTMENT OF
ROADS...RAWS...AND APRS NETWORKS...AND ARE NOT UNDER
NATIONAL WEATHER SERVICE QUALITY CONTROL***

...OBSERVATIONS IN AND NEAR THE EASTERN PANHANDLE OF NEBRASKA...

CITY           SKY/WX    TMP DP  RH WIND       PRES   REMARKS
PINE RIDGE     CLOUDY    20  15  81 N8        30.06R WCI  10
CHADRON        LGT SNOW  19  16  88 NE5       30.06R FOG     WCI  12
ALLIANCE       FLURRIES  16  14  92 N7        30.00R WCI   6
SIDNEY         LGT SNOW  17  14  88 N10       29.97S FOG     WCI   5
WHITECLAY        N/A     18  14  84 E9          N/A  WCI   7
CRESCENT LAKE    N/A     17  14  88 N10         N/A  WCI   5
LISCO            N/A     21  15  76 W7          N/A  WCI  13
BIG SPRINGS      N/A     21  18  86 N5          N/A  WCI  15
$$

...OBSERVATIONS IN NORTH CENTRAL NEBRASKA...

CITY           SKY/WX    TMP DP  RH WIND       PRES   REMARKS
VALENTINE      CLOUDY    22  19  89 N10       30.05R WCI  11
THEDFORD       CLOUDY    23  20  89 N13G18    30.02R WCI  11
AINSWORTH      CLOUDY    22  20  93 N15       30.03R WCI   9
O`NEILL        CLOUDY    26  25  96 N13       30.03R WCI  15
ORD            CLOUDY    25  21  85 N15G23    30.01R WCI  13
BROKEN BOW     CLOUDY    25  20  81 N23       29.99R WCI  10
BROWNLEE         N/A     20  18  89 S14         N/A  WCI   7
SPRINGVIEW       N/A     24  20  86 NW5G12      N/A  WCI  18
BREWSTER         N/A     27  23  86 N12         N/A  WCI  17
ROSE             N/A     27  27 100 NE5         N/A  WCI  21
SARGENT          N/A     25  22  89 NW3G12      N/A
COMSTOCK         N/A     30  25  80 N20         N/A  WCI  18
CHAMBERS         N/A     24  21  89 NE7         N/A  WCI  16
EWING            N/A     26  24  94 CALM        N/A
$$

...OBSERVATIONS IN SOUTHWEST NEBRASKA AND FAR NORTHEAST COLORADO...

CITY           SKY/WX    TMP DP  RH WIND       PRES   REMARKS
WRAY           FLURRIES  23  20  90 N14       29.97R WCI  11
IMPERIAL       CLOUDY    23  18  81 N18       30.00R WCI   9
OGALLALA       CLOUDY    23  18  81 NE13      30.02R WCI  11
NORTH PLATTE   CLOUDY    24  19  81 N12       30.00R WCI  13
MCCOOK         CLOUDY    26  20  77 N16       30.00R WCI  14
LEXINGTON      CLOUDY    27  22  84 N18       29.99R WCI  14
PAXTON           N/A     24  20  85 N12         N/A  WCI  13
BRADY            N/A     23  18  81 CALM        N/A
GOTHENBURG       N/A     23  19  83 N8          N/A  WCI  14
CALLAWAY         N/A     23  20  89 N13         N/A  WCI  11
$$

...NORTH PLATTE AREA...

CITY           SKY/WX    TMP DP  RH WIND       PRES   REMARKS
AIRPORT        CLOUDY    24  19  81 N12       30.00R WCI  13
DOWNTOWN         N/A     23  19  85 N7G17       N/A  WCI  15
$$

...SOME WEATHER OBSERVATIONS FROM AROUND THE REGION...

CITY           SKY/WX    TMP DP  RH WIND       PRES   REMARKS
DENVER         LGT SNOW  13  11  92 N6        29.91R FOG     WCI   4
LARAMIE        LGT SNOW   6   2  83 W5        29.79R FOG     WCI  -3
CHEYENNE       LGT SNOW  12   8  84 N7        29.87R FOG     WCI   1
SCOTTSBLUFF    FLURRIES  18  14  84 W3        30.01S
RAPID CITY     CLOUDY    19  15  84 N12       30.07R WCI   7
PIERRE         CLOUDY    24  19  81 N15       30.10R WCI  11
WINNER         MIX PCPN  25  22  88 N12       30.07R WCI  14
SIOUX FALLS    CLOUDY    27  23  85 N18       30.00S WCI  14
OMAHA          CLOUDY    34  32  92 N14       29.96R FOG     WCI  25
GRAND ISLAND   CLOUDY    27  23  85 N18       29.98S WCI  14
KANSAS CITY    CLOUDY    43  35  73 S8        29.90R
WICHITA        CLOUDY    34  29  82 N14G20    29.89R WCI  25
HAYS           CLOUDY    30  19  64 N12G22    29.95R WCI  21
LIBERAL        CLOUDY    30  21  69 N14       29.91F WCI  20
GOODLAND       CLOUDY    24  22  91 N13       29.95R FOG     WCI  12
$$



USA.gov is the U.S. government's official web portal to all federal, state and local government web resources and services.